TheGetRank SiteMap Page 1878
Home 1828 1829 1830 1831 1832 1833 1834 1835 1836 1837 1838 1839 1840 1841 1842 1843 1844 1845 1846 1847 1848 1849 1850 1851 1852 1853 1854 1855 1856 1857 1858 1859 1860 1861 1862 1863 1864 1865 1866 1867 1868 1869 1870 1871 1872 1873 1874 1875 1876 1877 1878 1879 1880 1881 1882 1883 1884 1885 1886 1887 1888 1889 1890 1891 1892 1893 1894 1895 1896 1897 1898 1899 1900 1901 1902 1903 1904 1905 1906 1907 1908 1909 1910 1911 1912 1913 1914 1915 1916 1917 1918 1919 1920 1921 1922 1923 1924 1925 1926 1927 1928
S.NO. Website Pagerank Alexa Rank Last Updated
1877000 superaggelies.gr 5 8260509 2011-08-17 08:55:48
1877001 spss.pl 4 2987001 2011-08-17 08:55:48
1877002 super-english.100webspace.net 0 153843 2011-09-11 19:22:48
1877003 11aabb.com 0 17791144 2011-09-13 23:43:10
1877004 super.bdinfo.net 0 47444 2011-09-12 17:07:52
1877005 superannuation.com 0 14485419 2011-08-17 08:55:57
1877006 super-print.ru 0 No Rank 2011-08-17 08:55:58
1877007 rlg.com 3 9047329 2011-08-17 08:56:00
1877008 superatrade.com 0 No Rank 2011-08-17 08:56:01
1877009 super8ny.com 4 No Rank 2011-08-17 08:56:01
1877010 superaffiliatetips.info 0 28469972 2011-08-17 08:56:06
1877011 soco.it 4 9011323 2011-08-17 08:56:06
1877012 sapi.hu 4 11853472 2011-08-17 08:56:08
1877013 supercluster.org 6 6556017 2011-08-17 08:56:08
1877014 superaap.nl 3 No Rank 2011-08-17 08:56:09
1877015 superbikemalaysia.com 3 528956 2011-08-17 08:56:11
1877016 superboard.com 4 1219440 2011-08-17 08:56:12
1877017 superclicker.com 0 No Rank 2011-08-17 08:56:14
1877018 kcmc.ca 3 9747885 2011-08-17 08:56:14
1877019 supercomp.org 6 6133628 2011-08-17 08:56:15
1877020 superbesplatneigrice.tumblr.com 0 No Rank 2011-08-17 08:56:16
1877021 superbesplatneigrice.blogspirit.com 0 No Rank 2011-08-17 08:56:17
1877022 superbike.com 0 6650396 2011-08-17 08:56:18
1877023 romb.si 4 No Rank 2011-08-17 08:56:19
1877024 superbookmarker.com 0 7842126 2011-08-17 08:56:20
1877025 superbowlfootballbetting.com 0 No Rank 2011-08-17 08:56:20
1877026 soti.ca 0 15801324 2011-09-19 05:42:18
1877027 superchat.or.at 4 No Rank 2011-08-17 08:56:22
1877028 supercandy.net 0 No Rank 2011-08-17 08:56:28
1877029 supercifras.net 3 7983140 2011-08-17 08:56:28
1877030 superc.ru 3 9603905 2011-08-17 08:56:30
1877031 superbikes.us 0 No Rank 2011-08-17 08:56:31
1877032 superbrawl.tv 3 No Rank 2011-08-17 08:56:32
1877033 spf.org 6 1798489 2011-08-17 08:56:35
1877034 superchat.eu 4 No Rank 2011-08-17 08:56:40
1877035 supergatinhas.net 0 No Rank 2011-08-17 08:56:46
1877036 sp-s.de 5 6370154 2011-08-17 08:56:48
1877037 superdowloads.com 0 16120700 2011-08-17 08:56:50
1877038 superdvdmart.com 0 11380555 2011-08-17 08:56:52
1877039 0752.cc 3 644798 2011-09-19 17:44:52
1877040 usopenschedule.net 1 7295966 2011-08-17 08:56:55
1877041 supergamer.cz 4 548313 2011-08-17 08:56:59
1877042 superflashbros.com 3 No Rank 2011-08-17 08:56:59
1877043 superfp.com 3 2348183 2011-08-17 08:57:02
1877044 somn.ru 2 578717 2011-08-17 08:57:03
1877045 rebu.ch 3 4276718 2011-08-17 08:57:04
1877046 supereasthockey.com 0 No Rank 2011-09-14 11:38:59
1877047 superfly.ca 3 12127508 2011-08-17 08:57:06
1877048 supereffective.com 0 No Rank 2011-08-17 08:57:13
1877049 superhitcd.com 0 22124746 2011-08-17 08:57:14
1877050 spra.pt 4 5964660 2011-08-17 08:57:19
1877051 house.disipromosyon.com.tr 0 13077307 2011-09-12 12:50:40
1877052 superiornutstore.com 4 367024 2011-08-17 08:57:27
1877053 superhumanradio.com 3 237383 2011-08-17 08:57:28
1877054 superheroesuniverse.net 0 No Rank 2011-08-17 08:57:29
1877055 superiornissanmotorsports.com 0 No Rank 2011-08-17 08:57:31
1877056 superhairsalon.com 0 23303044 2011-08-17 08:57:31
1877057 yutmlm002.wordpress.com 0 No Rank 2011-08-17 08:57:33
1877058 superhardware.co.in 0 No Rank 2011-08-17 08:57:35
1877059 superiorchamber.com 3 23972111 2011-08-17 08:57:40
1877060 superheroinas.info 0 No Rank 2011-08-17 08:57:41
1877061 superior-air.com 2 5996882 2011-08-17 08:57:42
1877062 superkfm.com 3 2989994 2011-09-19 17:27:32
1877063 aadt.com 3 3123549 2011-08-17 08:57:45
1877064 solis.pl 3 4538338 2011-08-17 08:57:48
1877065 superkanpo.com 2 1189100 2011-08-17 08:57:52
1877066 superliner.com 4 5030070 2011-08-17 08:57:57
1877067 superior.eng.ohio-state.edu 0 5616 2011-09-19 17:34:52
1877068 superknjizara.hr 6 244702 2011-08-17 08:58:00
1877069 neris.cz 4 19898378 2011-08-17 08:58:01
1877070 superman.ws 0 765578 2011-09-12 13:32:53
1877071 supermaildisk.com 1 5919483 2011-08-17 08:58:04
1877072 superkato.net 1 2220715 2011-08-17 08:58:06
1877073 superkariera.cz 5 413131 2011-08-17 08:58:08
1877074 superjob.nl 4 1166299 2011-08-17 08:58:11
1877075 superkostik.tsx.org 0 27318889 2011-09-18 04:17:20
1877076 superkingsizebeddings.net 1 24522905 2011-08-17 08:58:14
1877077 supernenas.com 0 No Rank 2011-08-17 08:58:14
1877078 superoffers.us 0 No Rank 2011-08-17 08:58:15
1877079 supermedicos.com 4 778058 2011-08-17 08:58:15
1877080 supermignonnes.com 0 No Rank 2011-08-17 08:58:24
1877081 0359.net 3 2579270 2011-08-17 08:58:25
1877082 0350.biz 3 No Rank 2011-08-17 08:58:27
1877083 supermedica.pl 0 No Rank 2011-08-17 08:58:27
1877084 supermotocanada.com 2 No Rank 2011-08-17 08:58:28
1877085 sols.org 6 2157931 2011-08-17 08:58:34
1877086 efkt.org 0 No Rank 2011-08-17 08:58:40
1877087 perawatanrambut.org 0 27812424 2011-08-17 08:58:43
1877088 supermovil.org 2 No Rank 2011-08-17 08:58:43
1877089 supermegagames.com 2 No Rank 2011-09-10 11:53:33
1877090 superpregnant.com 0 19422977 2011-08-17 08:58:45
1877091 superporn.com 0 21025062 2011-09-12 17:48:10
1877092 supermap.com.cn 5 573436 2011-09-19 00:09:37
1877093 cfaq.net 3 8595114 2011-08-17 08:58:53
1877094 supersharetips.com 0 No Rank 2011-08-17 08:58:54
1877095 superpetauction.com 0 No Rank 2011-08-17 08:58:56
1877096 spass.ru 4 2237256 2011-08-17 08:58:57
1877097 superrefrigeration.trade-india.com 0 2308516 2011-08-17 08:59:00
1877098 samus.cn 0 4447072 2011-08-17 08:59:05
1877099 supersextop.com 0 13252417 2011-08-17 08:59:05
1877100 onesourcecellular.com 0 No Rank 2011-08-17 08:59:06
1877101 superporevo.com 0 No Rank 2011-08-17 08:59:07
1877102 superpornvideo.com 0 No Rank 2011-09-18 06:10:30
1877103 sovki.ru 2 1950135 2011-08-17 08:59:10
1877104 superpornopass.net 0 No Rank 2011-08-17 08:59:10
1877105 superrefman.gasyhenjana.com 0 21649783 2011-09-18 12:35:47
1877106 superpoker.com 1 3754688 2011-08-17 08:59:12
1877107 superrooster.com 0 26073937 2011-08-17 08:59:12
1877108 pbeo.com 5 4691722 2011-08-17 08:59:13
1877109 supersamka.com 0 26513318 2011-08-17 08:59:14
1877110 supersmtp.com 0 No Rank 2011-09-13 19:10:40
1877111 superstronggirls.com 1 No Rank 2011-08-17 08:59:19
1877112 omnia.in 4 No Rank 2011-08-17 08:59:20
1877113 sp-sg.ch 4 16423836 2011-08-17 08:59:24
1877114 superstatement.com 0 15528087 2011-08-17 08:59:28
1877115 supersport.es 4 25009783 2011-08-17 08:59:33
1877116 supersite.ws 0 20992626 2011-08-17 08:59:36
1877117 y96k.com 3 No Rank 2011-08-17 08:59:37
1877118 superweightlossplans.com 0 No Rank 2011-08-17 08:59:45
1877119 superyule.com 0 No Rank 2011-08-17 08:59:49
1877120 supersvc.com 1 17775008 2011-08-17 08:59:51
1877121 superxstudios.com 3 7561876 2011-08-17 08:59:52
1877122 superwap.nl 4 No Rank 2011-08-17 08:59:53
1877123 priorityland.net 0 2523211 2011-08-17 08:59:53
1877124 supletech.com 2 No Rank 2011-08-17 08:59:53
1877125 levnews.net 0 No Rank 2011-08-17 08:59:56
1877126 superwakacje.elk.pl 0 No Rank 2011-08-17 08:59:58
1877127 supesite.com 8 1134253 2011-08-17 08:59:59
1877128 supersok.no 0 No Rank 2011-09-10 07:04:29
1877129 supersupper.com 0 No Rank 2011-08-17 09:00:02
1877130 supertossers.com 0 No Rank 2011-08-17 09:00:04
1877131 superweb.de 5 169395 2011-08-17 09:00:11
1877132 supertec.com 3 941780 2011-08-17 09:00:12
1877133 puecoserver.ecology.pu.edu.tw 0 91928 2011-09-19 20:07:59
1877134 supoe.com 0 No Rank 2011-08-17 09:00:20
1877135 supertema.ru 3 8924966 2011-08-17 09:00:20
1877136 suporn.info 0 13228502 2011-08-17 09:00:24
1877137 suppleteens.com 0 No Rank 2011-08-17 09:00:25
1877138 supply.mobi 0 No Rank 2011-08-17 09:00:29
1877139 supertaf.com 0 12551145 2011-09-10 06:48:29
1877140 supplywagon.net 0 No Rank 2011-08-17 09:00:31
1877141 supmart.com 3 275873 2011-08-17 09:00:36
1877142 supplychainmetric.com 3 1920508 2011-08-17 09:00:37
1877143 supplements24.co.cc 0 No Rank 2011-08-17 09:00:41
1877144 umez.com 2 19989690 2011-08-17 09:00:48
1877145 hariyantoagus.blogspot.com 1 6458971 2011-08-17 09:00:49
1877146 freegamezoneuk.com 0 No Rank 2011-08-17 09:01:02
1877147 support.org 1 3121198 2011-08-17 09:01:03
1877148 supportable.info 0 No Rank 2011-08-17 09:01:04
1877149 mokep.hu 5 5000780 2011-08-17 09:01:05
1877150 roli.com 3 24939966 2011-08-17 09:01:07
1877151 zced.com 3 77475 2011-08-17 09:01:09
1877152 syrcw.cn 4 691216 2011-09-12 18:40:22
1877153 spare.jp 3 209371 2011-08-17 09:01:17
1877154 support.stormerhosting.com 0 4261282 2011-08-17 09:01:17
1877155 supremecenter20.com 0 11705456 2011-08-17 09:01:18
1877156 suprb.com 5 950852 2011-08-17 09:01:22
1877157 supratuf.com 4 No Rank 2011-08-17 09:01:23
1877158 mirax.hu 4 3614544 2011-08-17 09:01:26
1877159 supportmech.virtualave.net 0 99972 2011-08-17 09:01:29
1877160 supremecenter27.com 0 1013475 2011-08-17 09:01:31
1877161 spad.com 1 No Rank 2011-08-17 09:01:32
1877162 supra2011.com 2 23567683 2011-08-17 09:01:33
1877163 supportplus.org 0 26892300 2011-09-14 23:49:14
1877164 supremecenter17.com 0 No Rank 2011-08-17 09:01:39
1877165 supportrepublicans.mobi 0 No Rank 2011-08-17 09:01:40
1877166 supremecenter28.com 0 No Rank 2011-08-17 09:01:42
1877167 dovs.com 1 No Rank 2011-08-17 09:01:44
1877168 somt.org 4 9701710 2011-08-17 09:01:45
1877169 supremecenter29.com 0 23303118 2011-08-17 09:01:46
1877170 supremecenter5.com 0 No Rank 2011-09-19 09:52:22
1877171 showpp.com 1 589843 2011-08-17 09:01:52
1877172 supremewarez.org 0 No Rank 2011-08-17 09:01:53
1877173 supremeperformance.com 3 No Rank 2011-08-17 09:01:56
1877174 supremeserver23.com 0 6865395 2011-08-17 09:01:58
1877175 vvvep.nl 0 No Rank 2011-08-17 09:01:59
1877176 sotka.ru 2 3027723 2011-08-17 09:02:02
1877177 crhl.net 3 No Rank 2011-08-17 09:02:04
1877178 supremeserver16.com 0 No Rank 2011-08-17 09:02:04
1877179 supremeserver21.com 0 28303756 2011-08-17 09:02:04
1877180 supremeserver5.com 0 16152957 2011-09-19 15:44:48
1877181 supremeserver14.com 0 No Rank 2011-08-17 09:02:12
1877182 sur-biz.com 0 1721283 2011-08-17 09:02:16
1877183 acegen.com 0 6180043 2011-08-17 09:02:18
1877184 surang.in 0 No Rank 2011-08-17 09:02:19
1877185 supremeserver25.com 0 21916189 2011-08-17 09:02:20
1877186 supremeserver22.com 0 No Rank 2011-08-17 09:02:21
1877187 supremedns.com 0 2544936 2011-09-19 01:25:46
1877188 supremeserver18.com 0 No Rank 2011-08-17 09:02:24
1877189 suprides.com 1 10829967 2011-08-17 09:02:25
1877190 surf2access.info 0 No Rank 2011-08-17 09:02:27
1877191 surdex.com 6 9492499 2011-08-17 09:02:31
1877192 surehope.com 2 No Rank 2011-08-17 09:02:32
1877193 akari.cn 0 16550548 2011-09-19 14:53:21
1877194 surf-point.co.il 3 6632631 2011-08-17 09:02:38
1877195 sureshotelph.com 0 No Rank 2011-08-17 09:02:42
1877196 sured.net 0 15286941 2011-08-17 09:02:42
1877197 spse.org 4 No Rank 2011-09-12 15:53:23
1877198 surcoufjunior.fr 0 No Rank 2011-08-17 09:02:44
1877199 surajmal.com 0 No Rank 2011-09-17 01:18:53
1877200 sure-quality.com 3 No Rank 2011-08-17 09:02:46
1877201 surface-blog.com 0 No Rank 2011-08-17 09:02:47
1877202 surf4all.org 0 No Rank 2011-09-12 15:05:35
1877203 surestacker.com 2 No Rank 2011-08-17 09:02:50
1877204 luyong52000.cn.alibaba.com 0 70 2011-08-17 09:02:53
1877205 surf-news.com 0 No Rank 2011-08-17 09:02:54
1877206 suresh.com 3 4771617 2011-08-17 09:02:54
1877207 surem.com 2 954655 2011-08-17 09:02:54
1877208 sure-wood.com 0 No Rank 2011-08-17 09:02:55
1877209 surelux.com 0 No Rank 2011-08-17 09:03:00
1877210 surdulica.com 2 22485370 2011-08-17 09:03:03
1877211 wpmf.org 3 No Rank 2011-08-17 09:03:04
1877212 surfatwork.info 0 No Rank 2011-08-17 09:03:10
1877213 surfproxy.us 3 6497319 2011-08-17 09:03:11
1877214 surfersparadiserentalcars.com 2 720518 2011-08-17 09:03:14
1877215 onweb.ro 3 No Rank 2011-08-17 09:03:16
1877216 surfclub.20megsfree.com 3 270627 2011-08-17 09:03:17
1877217 surfgator.com 0 No Rank 2011-08-17 09:03:18
1877218 surfam.com 4 5603770 2011-08-17 09:03:21
1877219 surfandsailbvi.com 0 No Rank 2011-09-19 02:35:04
1877220 surfingspirit.info 0 No Rank 2011-08-17 09:03:24
1877221 aarg.org 3 15868039 2011-08-17 09:03:25
1877222 surfingsolutions.org 0 17120187 2011-08-17 09:03:26
1877223 sureweb.nl 0 No Rank 2011-09-19 14:31:08
1877224 surffromwork.info 0 No Rank 2011-08-17 09:03:32
1877225 surffi.net 2 2371564 2011-08-17 09:03:33
1877226 micks.fi 4 9150361 2011-08-17 09:03:35
1877227 surfforum.com 3 5003346 2011-08-17 09:03:38
1877228 videos.rapichat.com 0 64287 2011-08-17 09:03:41
1877229 webit.ro 5 14387703 2011-08-17 09:03:42
1877230 surfmill.com 0 No Rank 2011-08-17 09:03:43
1877231 surfsong.com 3 No Rank 2011-08-17 09:03:44
1877232 sowt.com 0 No Rank 2011-08-17 09:03:49
1877233 surfgadget.com 0 6079147 2011-08-17 09:03:49
1877234 surnet.ru 3 530275 2011-08-17 09:03:50
1877235 surfsdsa.com 4 27871616 2011-08-17 09:03:52
1877236 surfworn.com 4 20229124 2011-08-17 09:03:53
1877237 surgex.com 4 6001160 2011-08-17 09:03:55
1877238 house.faire-des-economies.recherche-d-emploi.net 0 No Rank 2011-08-17 09:03:55
1877239 surgicalstaff.com 3 16882343 2011-08-17 09:03:55
1877240 suriregistry.net 0 No Rank 2011-08-17 09:03:59
1877241 surfola.com 0 6343407 2011-09-10 11:15:07
1877242 surimi.co.jp 0 6795067 2011-09-09 20:08:06
1877243 surfvb.com 2 18452667 2011-08-17 09:04:02
1877244 surfcontrol.co.uk 0 No Rank 2011-09-19 19:34:42
1877245 surfweek.info 1 13159961 2011-08-17 09:04:03
1877246 surigids.com 3 2495186 2011-08-17 09:04:06
1877247 evpzh.ch 5 8955407 2011-08-17 09:04:06
1877248 sosd.org 4 No Rank 2011-08-17 09:04:07
1877249 suriya.com 0 29012174 2011-08-17 09:04:09
1877250 51dc.net 4 2711249 2011-08-17 09:04:11
1877251 surgicalmicroscopes.com 3 4686686 2011-08-17 09:04:13
1877252 surinametourism.com 5 2822726 2011-08-17 09:04:14
1877253 surgutneftegas.ru 5 1029821 2011-08-17 09:04:15
1877254 ppmns.org 5 No Rank 2011-08-17 09:04:18
1877255 surgicalartspc.com 2 No Rank 2011-08-17 09:04:20
1877256 elterntreff-online.de 3 943023 2011-08-17 09:04:20
1877257 surfshopper.net 0 No Rank 2011-08-17 09:04:22
1877258 surfsc.com 0 No Rank 2011-09-19 01:50:32
1877259 surhul.co.uk 0 21389240 2011-08-17 09:04:23
1877260 surgutskie.freewebhostx.com 0 515798 2011-08-17 09:04:23
1877261 c-b-f.org 5 12390838 2011-08-17 09:04:25
1877262 surgery.mc.duke.edu 5 8052 2011-08-17 09:04:28
1877263 surveil.com 4 12157366 2011-08-17 09:04:29
1877264 wow.disipromosyon.com.tr 0 13077307 2011-09-12 11:56:52
1877265 surrogatecreations.com 0 No Rank 2011-08-17 09:04:30
1877266 bobizz.de 2 No Rank 2011-08-17 09:04:30
1877267 survey2.greenfieldonline.com 0 16355 2011-08-17 09:04:35
1877268 surreyrfu.co.uk 2 No Rank 2011-08-17 09:04:35
1877269 surreyquaysshoppingcentre.co.uk 3 818562 2011-08-17 09:04:35
1877270 surrex.com 4 1722142 2011-08-17 09:04:36
1877271 starwarslegoreviews.net 2 3236648 2011-08-17 09:04:36
1877272 e-matbaa.ws 0 No Rank 2011-08-17 09:04:39
1877273 mannenya.jp 0 No Rank 2011-08-17 09:04:39
1877274 konsum.tv 5 No Rank 2011-08-17 09:04:40
1877275 simpel.si 4 18850350 2011-08-17 09:04:45
1877276 surnet.cl 5 330009 2011-09-19 13:58:28
1877277 qq312.com 0 No Rank 2011-08-17 09:04:46
1877278 surreywebdesign.co.uk 4 3737125 2011-08-17 09:04:47
1877279 surveycompany.com 2 7760966 2011-08-17 09:04:48
1877280 surveillance-equipment.net 2 15710634 2011-08-17 09:04:52
1877281 ofgame.ru 1 868191 2011-08-17 09:04:53
1877282 susale.com 0 28067244 2011-08-17 09:04:55
1877283 surreysports.com 0 16865 2011-09-12 21:57:49
1877284 susanhayward.fashionstate.com 1 8321553 2011-08-17 09:05:00
1877285 06635.com 2 11009735 2011-08-17 09:05:03
1877286 surviveanaffair.info 0 No Rank 2011-08-17 09:05:13
1877287 susanhefuna.com 4 10233773 2011-08-17 09:05:15
1877288 surveytds.com 6 No Rank 2011-08-17 09:05:16
1877289 survivalx.searchking.com 0 4950703 2011-08-17 09:05:19
1877290 kerala.ws 3 12200156 2011-08-17 09:05:22
1877291 suscon.org 5 3590549 2011-08-17 09:05:24
1877292 sushisuki.com 0 No Rank 2011-08-17 09:05:26
1877293 sushiforlunch.com 3 No Rank 2011-09-19 17:47:58
1877294 sushmamm.com 4 5772262 2011-08-17 09:05:29
1877295 01086.com 3 6002491 2011-08-17 09:05:31
1877296 susk.ca 5 No Rank 2011-08-17 09:05:33
1877297 lowelldale106.xanga.com 0 2732 2011-08-17 09:05:34
1877298 suseagulls.com 6 1002612 2011-08-17 09:05:36
1877299 suspense.mobi 0 No Rank 2011-08-17 09:05:37
1877300 susiekang.hoops.jp 0 No Rank 2011-08-17 09:05:38
1877301 sorin.com 5 440606 2011-08-17 09:05:39
1877302 surveymanager.net 0 No Rank 2011-09-19 18:06:07
1877303 suse.dk 3 13656829 2011-08-17 09:05:45
1877304 susong.gov.cn 5 228467 2011-09-11 17:43:44
1877305 susdev.org 6 27283339 2011-08-17 09:05:47
1877306 suryadelhi.crowneplaza.com 0 53994 2011-09-12 12:53:42
1877307 sush.com 0 No Rank 2011-08-17 09:05:52
1877308 susi.ru 5 1817738 2011-08-17 09:05:55
1877309 susay.de 0 1648595 2011-08-17 09:05:55
1877310 sushi-yu.com 2 No Rank 2011-08-17 09:05:59
1877311 susansartisticaccents.com 1 No Rank 2011-08-17 09:05:59
1877312 06681.com 3 375391 2011-08-17 09:05:59
1877313 suszarnia.pl 3 No Rank 2011-08-17 09:06:02
1877314 sustainabledevelopment.org 5 No Rank 2011-08-17 09:06:04
1877315 encap.com 4 7302603 2011-08-17 09:06:05
1877316 cnvote.net 2 2709276 2011-08-17 09:06:08
1877317 eminem.pl 2 20043493 2011-08-17 09:06:09
1877318 sussiweb.com 3 471046 2011-08-17 09:06:12
1877319 susthome.com 3 403061 2011-08-17 09:06:28
1877320 susta.in 0 No Rank 2011-09-13 20:39:30
1877321 sustech.de 5 13635621 2011-08-17 09:06:28
1877322 working-in-plano.blogspot.com 0 No Rank 2011-08-17 09:06:30
1877323 gnj.or.jp 3 29267312 2011-09-18 01:47:16
1877324 sutus.com 5 2655596 2011-08-17 09:06:33
1877325 suzanneneville.com 3 2081171 2011-08-17 09:06:37
1877326 suzevideoclips.com 0 No Rank 2011-08-17 09:06:37
1877327 suzhouchem.com 3 No Rank 2011-08-17 09:06:39
1877328 av77.info 0 No Rank 2011-08-17 09:06:40
1877329 suwacci.or.jp 4 2944817 2011-08-17 09:06:41
1877330 suzenetcash.com 0 No Rank 2011-09-12 17:16:29
1877331 suusc.com 0 707940 2011-08-17 09:06:47
1877332 suwa.org 5 2471774 2011-08-17 09:06:49
1877333 sujiu.com 0 No Rank 2011-09-19 12:31:55
1877334 diebar.ch 1 No Rank 2011-08-17 09:06:56
1877335 arigio.it 3 6282717 2011-08-17 09:06:57
1877336 suzi9mm.deviantart.com 4 122 2011-08-17 09:06:58
1877337 suwon.ac.kr 3 1464860 2011-08-17 09:06:58
1877338 suzelive.net 0 23800596 2011-08-17 09:06:59
1877339 suvorotkavre.info 0 No Rank 2011-09-19 15:59:10
1877340 suyama.co.jp 3 No Rank 2011-08-17 09:07:01
1877341 suwanomise.com 4 9094142 2011-08-17 09:07:06
1877342 suttonplacehoteldominica.com 4 24326450 2011-08-17 09:07:10
1877343 suzievuong.com 0 14567403 2011-08-17 09:07:16
1877344 suzuki.com.mx 3 116371 2011-08-17 09:07:18
1877345 axtgypf.com 1 5043850 2011-08-17 09:07:18
1877346 opmaat.be 3 10940886 2011-08-17 09:07:19
1877347 suzukiya.net 3 No Rank 2011-08-17 09:07:29
1877348 id2.disipromosyon.com.tr 0 13077307 2011-09-17 18:30:17
1877349 suzwagner.com 2 8014635 2011-08-17 09:07:31
1877350 sv.epfl.ch 7 16858 2011-08-17 09:07:34
1877351 wef.co.kr 5 563037 2011-08-17 09:07:34
1877352 suzukihonten.co.jp 2 No Rank 2011-08-17 09:07:34
1877353 sv.order-box.com 4 1079699 2011-08-17 09:07:36
1877354 sv-hsk.de 0 No Rank 2011-08-17 09:07:36
1877355 themortgagemiracle.com 0 No Rank 2011-08-17 09:07:37
1877356 c-bit.org 1 3586674 2011-08-17 09:07:37
1877357 suzugo.com 2 18097007 2011-08-17 09:07:38
1877358 sorich.jp 2 1665235 2011-08-17 09:07:41
1877359 suzuki-gt.co.uk 2 19289065 2011-08-17 09:07:42
1877360 neolog.jp 4 3477791 2011-08-17 09:07:43
1877361 sv-engineering.de 2 No Rank 2011-08-17 09:07:43
1877362 bainbridgechamber.com 5 2004804 2011-08-17 09:07:45
1877363 svanascini.com 0 No Rank 2011-08-17 09:07:47
1877364 sven-skrabal.de 2 No Rank 2011-08-17 09:07:48
1877365 sveikinimai.com 4 690559 2011-08-17 09:07:56
1877366 svama.org 5 1858249 2011-08-17 09:07:56
1877367 svdjpn.com 3 No Rank 2011-08-17 09:07:57
1877368 svarimvse.ru 0 7521940 2011-08-17 09:07:59
1877369 svcmusic.com 2 No Rank 2011-08-17 09:08:00
1877370 sven-r-g.de 2 No Rank 2011-08-17 09:08:03
1877371 svalka.biz 2 8882566 2011-08-17 09:08:04
1877372 blog.fresahost.com 0 284607 2011-08-17 09:08:05
1877373 svanen.nu 5 No Rank 2011-08-17 09:08:05
1877374 sv69.com 0 30157483 2011-08-17 09:08:06
1877375 sveikinimai.lt 4 7624569 2011-08-17 09:08:08
1877376 svb.se 5 1140561 2011-08-17 09:08:08
1877377 geolog.cz 4 6422768 2011-08-17 09:08:11
1877378 svdpnm.org 2 14922634 2011-08-17 09:08:12
1877379 svcommunity.com 3 19753053 2011-08-17 09:08:12
1877380 svch.com 0 No Rank 2011-09-10 06:38:41
1877381 svbe.com 3 18700448 2011-08-17 09:08:14
1877382 svc.tel 0 No Rank 2011-08-17 09:08:16
1877383 svdchina.org 4 16976406 2011-08-17 09:08:20
1877384 svastour.ru 4 539808 2011-08-17 09:08:25
1877385 cerdi.org 6 1810191 2011-08-17 09:08:26
1877386 svgfaq.com 4 No Rank 2011-08-17 09:08:26
1877387 svgsbank.com 0 No Rank 2011-09-19 17:16:26
1877388 svinaposao.com 2 29428840 2011-08-17 09:08:27
1877389 svist.cz 5 1387192 2011-08-17 09:08:27
1877390 head-planter.com 0 12743089 2011-08-17 09:08:30
1877391 sverige.bokus.com 0 36307 2011-08-17 09:08:31
1877392 staro.net 3 13631610 2011-08-17 09:08:31
1877393 svff.org 4 No Rank 2011-08-17 09:08:32
1877394 svetovalec.si 4 5011351 2011-08-17 09:08:34
1877395 svhermes.net 2 6004711 2011-08-17 09:08:38
1877396 pop-tv.si 6 814494 2011-08-17 09:08:38
1877397 svga.ru 4 3129586 2011-08-17 09:08:39
1877398 svevap.se 3 No Rank 2011-08-17 09:08:40
1877399 svhd.com 2 No Rank 2011-08-17 09:08:40
1877400 svessa.se 0 15651411 2011-08-17 09:08:46
1877401 sveta.gigazu.net 0 No Rank 2011-08-17 09:08:48
1877402 svenskaakademien.se 7 398929 2011-09-15 15:12:57
1877403 svjug.org 0 No Rank 2011-09-12 13:36:08
1877404 sverige.de 3 3872132 2011-08-17 09:08:54
1877405 svgranite.com 0 No Rank 2011-08-17 09:08:55
1877406 g-i-n.net 6 2955791 2011-08-17 09:08:57
1877407 svijet-obitelji.com 4 9464573 2011-08-17 09:08:59
1877408 socola.vn 4 154608 2011-08-17 09:09:03
1877409 svmh.com 5 1864278 2011-08-17 09:09:03
1877410 svma.sk.ca 5 13050681 2011-08-17 09:09:07
1877411 svkhk.cz 7 1989482 2011-08-17 09:09:07
1877412 svkst.hr 7 7957188 2011-08-17 09:09:10
1877413 svmcards.net 5 284138 2011-08-17 09:09:10
1877414 svlele.com 4 1233852 2011-08-17 09:09:13
1877415 svna.org 2 22757652 2011-08-17 09:09:18
1877416 svp-ow.ch 2 No Rank 2011-08-17 09:09:19
1877417 svmic.com 4 18885681 2011-08-17 09:09:20
1877418 svpworld.com 3 15110085 2011-08-17 09:09:24
1877419 svs.org.uk 3 4848710 2011-08-17 09:09:25
1877420 svmb.org 5 No Rank 2011-08-17 09:09:27
1877421 docelu.pl 6 42241 2011-08-17 09:09:29
1877422 svs.no.lv 0 2277553 2011-09-19 15:05:51
1877423 svreclaimedlumber.com 2 No Rank 2011-08-17 09:09:30
1877424 wow.faire-des-economies.recherche-d-emploi.net 0 No Rank 2011-08-17 09:09:32
1877425 svprint.ru 0 No Rank 2011-08-17 09:09:33
1877426 svp.com 5 548559 2011-08-17 09:09:35
1877427 xysfxy.cn 6 2582152 2011-09-10 08:32:35
1877428 svry.com 4 9904865 2011-08-17 09:09:36
1877429 svonline.net 3 10948416 2011-08-17 09:09:37
1877430 svmcards.com 5 4873299 2011-08-17 09:09:39
1877431 svtcobraclub.com 3 4388099 2011-08-17 09:09:44
1877432 sw-soft.com 0 1073177 2011-08-17 09:09:44
1877433 sw5000.com 0 3987530 2011-09-12 14:25:36
1877434 mhril.com 4 5596280 2011-08-17 09:09:51
1877435 svw.de 0 24595326 2011-08-17 09:09:51
1877436 sw-m.com 1 No Rank 2011-08-17 09:09:51
1877437 sivbc.org 2 7248213 2011-08-17 09:09:55
1877438 swaah.com 0 11778928 2011-08-17 09:09:56
1877439 ports.net 3 2020729 2011-08-17 09:09:56
1877440 sw.gov.cn 4 17454505 2011-09-18 03:11:29
1877441 svvcu.org 3 9180120 2011-08-17 09:09:58
1877442 svtv.com 4 4927647 2011-08-17 09:10:00
1877443 sw-connection.net 1 No Rank 2011-08-17 09:10:01
1877444 svtriclub.org 4 6395948 2011-08-17 09:10:01
1877445 sw-kobe.com 4 2422033 2011-08-17 09:10:03
1877446 diili.net 3 No Rank 2011-08-17 09:10:05
1877447 swabiz.com 5 299625 2011-08-17 09:10:05
1877448 westerndigitalharddrivereview.blogspot.com 0 No Rank 2011-08-17 09:10:05
1877449 swaffersgateway.com 5 No Rank 2011-09-12 15:22:40
1877450 svxd.com 2 557253 2011-08-17 09:10:10
1877451 svus.com 0 No Rank 2011-09-19 19:46:12
1877452 svt.com.cn 0 14461594 2011-09-19 15:25:42
1877453 swac.co.uk 3 5034427 2011-08-17 09:10:14
1877454 svss.org 3 11970988 2011-08-17 09:10:16
1877455 svw-online.de 4 7170364 2011-08-17 09:10:19
1877456 svv.lt 5 17485945 2011-08-17 09:10:20
1877457 e-faire-des-economies.recherche-d-emploi.net 0 No Rank 2011-08-17 09:10:24
1877458 freeek.jp 3 1011299 2011-08-17 09:10:25
1877459 swaine.com 4 23088347 2011-09-18 09:44:32
1877460 gef-ge.ch 1 No Rank 2011-08-17 09:10:26
1877461 swampdogg.safeshopper.com 0 266732 2011-08-17 09:10:30
1877462 swampworks.com 2 No Rank 2011-08-17 09:10:33
1877463 swallowthesun.net 4 4880293 2011-08-17 09:10:33
1877464 w0w.co.jp 5 1782638 2011-08-17 09:10:34
1877465 swak.org 5 No Rank 2011-09-12 16:54:03
1877466 swami-ramdev-yoga.com 0 7181292 2011-09-16 17:00:40
1877467 swagazine.com 4 No Rank 2011-08-17 09:10:40
1877468 swaincounty.org 5 No Rank 2011-09-18 23:34:47
1877469 swahacabins.com 2 No Rank 2011-08-17 09:10:42
1877470 swalfy.com 3 2565947 2011-08-17 09:10:44
1877471 swakdesigns.com 4 258215 2011-08-17 09:10:46
1877472 swankgirl.com 0 No Rank 2011-08-17 09:10:52
1877473 swalf.net 0 10957356 2011-08-17 09:10:53
1877474 swallow-web.com 4 8410525 2011-08-17 09:10:54
1877475 swam.org.my 2 16512868 2011-09-12 04:01:05
1877476 swainbrook.com 3 20107123 2011-08-17 09:10:56
1877477 winqgames.driverfind.hop.clickbank.net 0 650 2011-08-17 09:10:57
1877478 swap-sheet-central-virginia.nadzioby.zik.dj 0 3085413 2011-09-19 01:12:18
1877479 swartzcampbell.com 4 7177289 2011-09-11 01:59:08
1877480 bark2ranch.com 2 No Rank 2011-08-17 09:11:03
1877481 swanvalleyglassworks.com 2 No Rank 2011-08-17 09:11:08
1877482 swansonwoodworking.tripod.com 1 658 2011-08-17 09:11:08
1877483 swany.co.jp 5 24978576 2011-08-17 09:11:10
1877484 swanuk.org.uk 4 No Rank 2011-08-17 09:11:10
1877485 swantrust.org 4 No Rank 2011-08-17 09:11:11
1877486 swankspace.com 2 22939583 2011-08-17 09:11:11
1877487 swantak14.k2free.com 0 4611610 2011-08-17 09:11:17
1877488 swarzedz.top-ogloszenia.com 0 570564 2011-08-17 09:11:18
1877489 copia.org 4 9664053 2011-08-17 09:11:25
1877490 swaphits.com 0 No Rank 2011-08-17 09:11:25
1877491 swarn.org 2 18642323 2011-08-17 09:11:30
1877492 swapnow.com 4 No Rank 2011-08-17 09:11:32
1877493 swapperad.net 0 No Rank 2011-08-17 09:11:34
1877494 swansea-aircooled-club.org.uk 1 No Rank 2011-08-17 09:11:35
1877495 swauger.com 0 No Rank 2011-08-17 09:11:36
1877496 swapmypop.com 0 No Rank 2011-09-10 23:36:09
1877497 swcoils.com 2 No Rank 2011-08-17 09:11:41
1877498 monogrammedstationery.org 0 6502127 2011-08-17 09:11:42
1877499 swd-ag.de 5 650269 2011-08-17 09:11:42
1877500 swbia.com 3 3545314 2011-08-17 09:11:43
1877501 sweatshopinc.com 0 No Rank 2011-09-19 06:01:34
1877502 swdx.net 2 No Rank 2011-08-17 09:11:50
1877503 swdsilverornaments.com 2 No Rank 2011-08-17 09:11:51
1877504 swcolt.org 5 23462955 2011-08-17 09:11:53
1877505 swdirekt.de 3 843008 2011-08-17 09:11:58
1877506 swatgun.biz 0 No Rank 2011-08-17 09:12:06
1877507 swea.org 6 2582578 2011-08-17 09:12:07
1877508 swbidc.org 3 No Rank 2011-08-17 09:12:08
1877509 swcil.org 4 14442446 2011-08-17 09:12:09
1877510 swdownloads.com 4 No Rank 2011-08-17 09:12:10
1877511 kosht.com 5 141485 2011-08-17 09:12:11
1877512 swc2005.org 4 No Rank 2011-08-17 09:12:12
1877513 swcc.gov.sa 6 168302 2011-08-17 09:12:13
1877514 swedry.com 1 20826625 2011-08-17 09:12:15
1877515 sweet-milk.com 0 No Rank 2011-09-09 21:59:16
1877516 swatch.jp 5 811943 2011-08-17 09:12:16
1877517 swedenvacation.eu 0 No Rank 2011-08-17 09:12:20
1877518 swedish-institute.com 0 No Rank 2011-08-17 09:12:22
1877519 g-i-m.com 4 2953634 2011-08-17 09:12:24
1877520 sweet-sims.com 4 3371249 2011-08-17 09:12:26
1877521 n-g-a.net 2 5384618 2011-08-17 09:12:27
1877522 mlpipe.cn 3 3671569 2011-09-12 16:07:41
1877523 net-tv.si 4 9080379 2011-08-17 09:12:28
1877524 sweet-online-dating.blogspot.com 0 No Rank 2011-08-17 09:12:29
1877525 swedishopen.org 6 264882 2011-08-17 09:12:30
1877526 sweet-coppin.co.uk 2 No Rank 2011-08-17 09:12:31
1877527 swedesurvival.com 4 No Rank 2011-08-17 09:12:31
1877528 idial.net 0 No Rank 2011-08-17 09:12:34
1877529 swedishdream.com 1 No Rank 2011-08-17 09:12:34
1877530 azizcorp.com 4 253168 2011-08-17 09:12:38
1877531 sweet-models.cooking-games.biz 0 89650 2011-08-17 09:12:39
1877532 swedenviro.se 4 No Rank 2011-08-17 09:12:40
1877533 sweepstakesblog.info 0 No Rank 2011-08-17 09:12:44
1877534 swedisherotica.org 0 6975110 2011-08-17 09:12:46
1877535 snmsf.com 0 No Rank 2011-08-17 09:12:52
1877536 cmiav.com 3 20624091 2011-08-17 09:12:52
1877537 sweet-sin.de 3 474782 2011-08-17 09:12:53
1877538 didde.com 2 18994114 2011-08-17 09:12:56
1877539 sweetcity.com 0 23303311 2011-08-17 09:12:59
1877540 sweet-sin.com 2 32567 2011-09-19 19:38:08
1877541 secpol.pl 3 19224048 2011-08-17 09:13:02
1877542 swedatron.com 3 9291691 2011-08-17 09:13:02
1877543 sweetestthings.com 0 11564425 2011-08-17 09:13:04
1877544 ikonzeiss.com 0 7712498 2011-08-17 09:13:09
1877545 firetoys.co.uk 4 242260 2011-08-17 09:13:10
1877546 sweetbox.ws 3 No Rank 2011-08-17 09:13:10
1877547 doceo.com 4 No Rank 2011-09-19 07:25:21
1877548 133989.com 0 No Rank 2011-08-17 09:13:17
1877549 sweetbaysupermarkets.com 0 11406472 2011-08-17 09:13:18
1877550 sweetnspicy.com 0 24192131 2011-08-17 09:13:20
1877551 bestsellingproducts.weebly.com 0 No Rank 2011-08-17 09:13:20
1877552 sweetmovies.com 0 No Rank 2011-08-17 09:13:22
1877553 sweetindulgence.com 2 No Rank 2011-08-17 09:13:23
1877554 cerdd.org 6 2337228 2011-08-17 09:13:26
1877555 13522.org 0 No Rank 2011-08-17 09:13:26
1877556 sweetsoulmateaustralia.com 1 No Rank 2011-08-17 09:13:35
1877557 sweetpeek.com 0 26304508 2011-09-12 11:17:07
1877558 sweetonlinemovies.com 2 No Rank 2011-08-17 09:13:38
1877559 sweetsoul.biz 0 No Rank 2011-08-17 09:13:40
1877560 sweetpeasinc.com 0 No Rank 2011-09-18 07:38:39
1877561 sweetieworld.co.uk 3 1186333 2011-08-17 09:13:42
1877562 sp-ss.com 1 1408545 2011-08-17 09:13:42
1877563 leiki.com 4 1096192 2011-08-17 09:13:42
1877564 sweetiesswag.com 2 1766581 2011-08-17 09:13:43
1877565 sweets.com 7 24301 2011-08-17 09:13:44
1877566 sweetpalace.com 4 6513303 2011-08-17 09:13:47
1877567 sweetmemoriessite.com 0 No Rank 2011-08-17 09:13:47
1877568 sweetpantyhose.com 0 No Rank 2011-08-17 09:13:49
1877569 sweetsquirt.com 1 No Rank 2011-08-17 09:13:52
1877570 sweetteengirls.org 0 2381955 2011-08-17 09:13:52
1877571 sweettoothchocolates.com 4 12620738 2011-08-17 09:13:53
1877572 ooyes.net 5 263662 2011-08-17 09:13:53
1877573 swein.org 0 No Rank 2011-09-19 17:53:49
1877574 spcms.org 3 8341296 2011-08-17 09:14:01
1877575 id2.faire-des-economies.recherche-d-emploi.net 0 No Rank 2011-08-17 09:14:04
1877576 0759n.com 0 No Rank 2011-08-17 09:14:05
1877577 13523.com 0 No Rank 2011-08-17 09:14:12
1877578 swetim.com 0 23567799 2011-08-17 09:14:12
1877579 powls.com 0 No Rank 2011-09-12 17:22:05
1877580 sweetskies.fruitwerks.us 0 19769511 2011-09-10 07:42:41
1877581 swfoo.com 4 No Rank 2011-08-17 09:14:16
1877582 swfire.com 4 No Rank 2011-08-17 09:14:18
1877583 swfrpc.org 5 21216540 2011-08-17 09:14:19
1877584 13525.com 0 No Rank 2011-09-12 15:00:26
1877585 swfl360.com 3 19582739 2011-08-17 09:14:22
1877586 stmarg.ca 5 1829536 2011-08-17 09:14:22
1877587 sweetwaterarabianhorses.com 0 8662031 2011-08-17 09:14:22
1877588 swiiit.com 0 2513919 2011-09-19 19:34:02
1877589 swgabsa.org 2 No Rank 2011-08-17 09:14:30
1877590 13526.com 0 No Rank 2011-08-17 09:14:31
1877591 swidnica.top-ogloszenia.net 1 122338 2011-09-09 23:46:25
1877592 swim.dk 3 13921877 2011-08-17 09:14:33
1877593 swgalaxies.de 2 No Rank 2011-08-17 09:14:34
1877594 swgd.org 0 5950939 2011-08-17 09:14:38
1877595 138087.com 1 No Rank 2011-08-17 09:14:40
1877596 pdc-ge.ch 5 No Rank 2011-08-17 09:14:40
1877597 swfutures.com 5 6080721 2011-08-17 09:14:40
1877598 bepub.com 5 127280 2011-08-17 09:14:40
1877599 swigequities.com 3 12515829 2011-08-17 09:14:43
1877600 swhas.org.uk 3 21967017 2011-08-17 09:14:45
1877601 swfv.de 4 3026099 2011-08-17 09:14:45
1877602 swiftclubmalaysia.com 2 1847625 2011-08-17 09:14:45
1877603 cucvb.org 0 3158318 2011-08-17 09:14:46
1877604 personalizedcocktailnapkins.org 0 7331868 2011-08-17 09:14:46
1877605 iabbq.org 4 11637130 2011-08-17 09:14:47
1877606 swhois.net 6 1340266 2011-08-17 09:14:49
1877607 swimcmsa.com 2 No Rank 2011-08-17 09:14:50
1877608 job7.disipromosyon.com.tr 0 13077307 2011-09-18 10:46:10
1877609 swgmods.org 0 No Rank 2011-08-17 09:14:51
1877610 swiha.org 5 24895652 2011-08-17 09:15:00
1877611 spsse.org 4 2799217 2011-08-17 09:15:02
1877612 swifthesper.lu 3 10590010 2011-08-17 09:15:03
1877613 swiftmusicvideo.info 0 No Rank 2011-08-17 09:15:03
1877614 2sotki.ru 2 1969050 2011-09-13 13:18:34
1877615 swingball.com 0 No Rank 2011-08-17 09:15:06
1877616 swine.com 1 No Rank 2011-08-17 09:15:09
1877617 poweredsubwooferinfo.com 0 No Rank 2011-08-17 09:15:12
1877618 swindonevent.com 3 No Rank 2011-09-12 14:56:05
1877619 spagna.cc 5 536287 2011-08-17 09:15:14
1877620 swimwarm.com 2 11065409 2011-08-17 09:15:17
1877621 swindon.org.uk 4 No Rank 2011-09-17 23:36:09
1877622 swindonfocus.com 1 16471373 2011-08-17 09:15:30
1877623 swindonontheweb.com 1 No Rank 2011-08-17 09:15:31
1877624 gatax.org 1 24340411 2011-08-17 09:15:34
1877625 swingtrainers.com 2 15206422 2011-08-17 09:15:35
1877626 swisscancer.ch 6 1372135 2011-08-17 09:15:40
1877627 swingle.org 0 No Rank 2011-08-17 09:16:03
1877628 swis.nl 6 665663 2011-08-17 09:16:10
1877629 neolog.bg 4 8930954 2011-08-17 09:16:16
1877630 swish-tutorials.com 3 336509 2011-08-17 09:16:19
1877631 swissbenevolentny.com 4 No Rank 2011-08-17 09:16:28
1877632 swiss-schools.ch 6 1656300 2011-08-17 09:16:30
1877633 swisscasino.com 5 3131802 2011-08-17 09:16:31
1877634 swingervideos.info 0 No Rank 2011-09-11 03:38:12
1877635 swisko.com 1 28685354 2011-08-17 09:16:33
1877636 swiss.ai.mit.edu 7 1389 2011-08-17 09:16:36
1877637 free-sources.blogspot.com 0 19405441 2011-08-17 09:16:37
1877638 hypnos.ch 4 19270086 2011-08-17 09:16:38
1877639 swisscom.ch 7 14407 2011-08-17 09:16:38
1877640 swisscoalition.ch 0 No Rank 2011-08-17 09:16:40
1877641 swisslabor.de 0 No Rank 2011-08-17 09:16:40
1877642 switcher.com 6 910281 2011-08-17 09:16:46
1877643 snmsl.com 2 21091541 2011-08-17 09:16:49
1877644 swissts.ch 5 5000938 2011-08-17 09:16:51
1877645 swisslife.ch 0 579562 2011-09-12 13:59:01
1877646 swledlamp.com 4 2476325 2011-08-17 09:17:00
1877647 losingweightwhilepregnantx.com 0 15158321 2011-08-17 09:17:04
1877648 bookid.ru 3 19862661 2011-08-17 09:17:04
1877649 swissgay.ch 4 355063 2011-08-17 09:17:06
1877650 swiza.ch 4 6658668 2011-08-17 09:17:09
1877651 latale.jp 5 163586 2011-08-17 09:17:09
1877652 swjan.tami.pl 2 1742503 2011-08-17 09:17:09
1877653 swkcc.org 4 3499770 2011-08-17 09:17:12
1877654 williamwang.info 1 687654 2011-08-17 09:17:13
1877655 lucki.com 1 17878370 2011-08-17 09:17:15
1877656 switch.ch 8 51994 2011-08-17 09:17:18
1877657 sword.ws 0 No Rank 2011-08-17 09:17:19
1877658 swissgeo.ch 6 264232 2011-08-17 09:17:21
1877659 swoleboard.com 0 5832772 2011-08-17 09:17:23
1877660 swmendo.com 0 23019807 2011-08-17 09:17:24
1877661 swirve.com 0 3220320 2011-09-18 02:22:04
1877662 swoneky.org 3 No Rank 2011-08-17 09:17:25
1877663 swjy.net 0 2852547 2011-08-17 09:17:27
1877664 swop.org.au 4 12329518 2011-08-17 09:17:29
1877665 swotbooks.com 4 25937719 2011-08-17 09:17:30
1877666 swmcfcu.org 3 2136303 2011-08-17 09:17:31
1877667 swp-records.com 5 No Rank 2011-08-17 09:17:31
1877668 swpc.net 4 No Rank 2011-08-17 09:17:31
1877669 swooshtime.com 0 15867352 2011-09-12 16:00:55
1877670 sworder.co.uk 4 1114625 2011-08-17 09:17:35
1877671 swr-online.de 7 10748 2011-08-17 09:17:35
1877672 swone.com 2 No Rank 2011-08-17 09:17:37
1877673 swmexico.com 0 No Rank 2011-08-17 09:17:38
1877674 swtb.info 4 1119136 2011-08-17 09:17:40
1877675 swrus-kiev.com 4 11595233 2011-08-17 09:17:42
1877676 swqh.com 0 No Rank 2011-08-17 09:17:42
1877677 swsoft.net 0 No Rank 2011-08-17 09:17:42
1877678 y2m.cn 4 160732 2011-08-17 09:17:44
1877679 alienware-m15x.ministory.us 0 8146902 2011-08-17 09:17:46
1877680 swrcsd.com 4 No Rank 2011-08-17 09:17:47
1877681 sx-310j.bp-solar-panels.solar-panels.solarcells.tel 0 23415236 2011-08-17 09:17:47
1877682 swr2.de 6 25434473 2011-08-17 09:17:49
1877683 swvbass.com 2 No Rank 2011-08-17 09:17:51
1877684 swsslaw.com 4 6558683 2011-08-17 09:17:53
1877685 swvrscca.org 3 No Rank 2011-08-17 09:17:55
1877686 sww.edu.pl 4 19608185 2011-09-11 22:53:29
1877687 swusa.com 0 18866719 2011-08-17 09:18:00
1877688 swscomputers.com 1 No Rank 2011-09-12 17:27:13
1877689 swta.org 4 21627310 2011-08-17 09:18:03
1877690 swynk.com 5 403183 2011-08-17 09:18:04
1877691 swords.net 0 19086196 2011-09-19 10:09:21
1877692 swrescue.net 1 No Rank 2011-08-17 09:18:08
1877693 swsi.org 5 No Rank 2011-08-17 09:18:08
1877694 swr24.com 2 1750475 2011-08-17 09:18:08
1877695 swtor-croatia.com 2 No Rank 2011-08-17 09:18:09
1877696 swuuc.org 4 No Rank 2011-08-17 09:18:09
1877697 swrea.com 4 5128150 2011-08-17 09:18:10
1877698 swwa.sk.ca 3 No Rank 2011-08-17 09:18:10
1877699 swwisa.net 2 19949457 2011-08-17 09:18:12
1877700 swsd.k12.pa.us 3 31056 2011-08-17 09:18:13
1877701 swrailway.gov.ua 4 443091 2011-08-17 09:18:14
1877702 sxnews.com.cn 5 No Rank 2011-08-17 09:18:19
1877703 swyc.com 0 No Rank 2011-09-12 13:32:39
1877704 sxty.com.cn 6 4473253 2011-08-17 09:18:20
1877705 swu.ac.kr 5 2387559 2011-09-18 05:52:42
1877706 sxtv6.com 4 99590 2011-08-17 09:18:22
1877707 sxg.in 0 3486741 2011-08-17 09:18:25
1877708 sxscmxx.com 0 No Rank 2011-08-17 09:18:28
1877709 sxhuanyu.com 0 No Rank 2011-08-17 09:18:29
1877710 sxqjqs.com 3 No Rank 2011-08-17 09:18:36
1877711 sxbaoye.com 5 7590803 2011-09-12 17:16:14
1877712 sxi.com 0 No Rank 2011-08-17 09:18:39
1877713 sxip.com.cn 4 No Rank 2011-08-17 09:18:40
1877714 sxkjsc.com 3 No Rank 2011-09-11 08:16:15
1877715 sxjky.com 5 1777218 2011-09-18 09:37:52
1877716 sxrc.cn.com 0 No Rank 2011-08-17 09:18:44
1877717 sxm-cars.com 2 10266683 2011-08-17 09:18:44
1877718 sxda.gov.cn 5 15352611 2011-08-17 09:18:46
1877719 sxcz.net 0 No Rank 2011-09-12 14:03:51
1877720 societyforscience.org 7 734706 2011-09-19 15:53:49
1877721 sxforum.org 1 8374774 2011-08-17 09:18:59
1877722 sxcdc.org 5 16053852 2011-08-17 09:19:00
1877723 sxgg.com 3 No Rank 2011-08-17 09:19:04
1877724 sxxdsj.com 3 No Rank 2011-08-17 09:19:06
1877725 syatp.com 4 2879672 2011-08-17 09:19:07
1877726 syasoccer.org 2 2628979 2011-08-17 09:19:11
1877727 sxxxyporn.com 1 No Rank 2011-08-17 09:19:14
1877728 syakazuka.com 1 9109389 2011-08-17 09:19:16
1877729 sydhav.no 4 2531463 2011-08-17 09:19:19
1877730 sy566.com 0 No Rank 2011-08-17 09:19:22
1877731 sxqc.com 6 1411249 2011-08-17 09:19:23
1877732 syc-cjs.org 6 21331072 2011-08-17 09:19:24
1877733 sxwsjd.com 6 No Rank 2011-08-17 09:19:25
1877734 sxwh.gov.cn 7 2967948 2011-08-17 09:19:26
1877735 sycoop.com 4 No Rank 2011-08-17 09:19:29
1877736 sxxt.info 0 No Rank 2011-08-17 09:19:30
1877737 syarashtools.com 1 5125011 2011-08-17 09:19:34
1877738 sycamoreschools.org 0 1722347 2011-09-19 12:06:02
1877739 syclik.com 0 No Rank 2011-08-17 09:19:38
1877740 sydin.fi 6 3972525 2011-08-17 09:19:38
1877741 sycdc.com 4 9981943 2011-09-19 12:22:03
1877742 sylantro.com 0 21967041 2011-08-17 09:19:42
1877743 sygpc.cn 5 6865050 2011-09-19 15:49:10
1877744 syhost.com 0 No Rank 2011-08-17 09:19:51
1877745 sylab.com 4 11623501 2011-08-17 09:19:53
1877746 sydneywesterndarts.com 1 19834593 2011-08-17 09:19:55
1877747 sydneyguide.net.au 4 3037251 2011-08-17 09:19:58
1877748 sykinfo.com 0 7776829 2011-08-17 09:20:00
1877749 syjx.com 1 10002636 2011-08-17 09:20:01
1877750 syjrhw.cn 1 No Rank 2011-08-17 09:20:01
1877751 hableweb.com 4 229437 2011-08-17 09:20:05
1877752 sylboat.com 2 23417461 2011-08-17 09:20:06
1877753 syk.net 1 3614060 2011-08-17 09:20:08
1877754 syma-s107-helicopter.org 0 No Rank 2011-08-17 09:20:19
1877755 symbiosgroup.co.uk 3 4142569 2011-08-17 09:20:22
1877756 sylvester.se 4 2873817 2011-08-17 09:20:26
1877757 symbian-news.info 0 No Rank 2011-08-17 09:20:29
1877758 symcons.com 2 23800799 2011-08-17 09:20:32
1877759 sydney.net 2 4084879 2011-09-12 18:56:26
1877760 sylwester.webpromotion.pl 2 25361276 2011-08-17 09:20:36
1877761 21stcentury.disipromosyon.com.tr 0 13077307 2011-09-18 10:26:19
1877762 symed.com 3 6001657 2011-08-17 09:20:39
1877763 sylvia7207929.bloging.co.in 0 12909124 2011-08-17 09:20:42
1877764 symmetry.nu 2 No Rank 2011-08-17 09:20:43
1877765 symbolon.de 3 732808 2011-08-17 09:20:43
1877766 sylvesterhoogmoed.tripod.com 0 658 2011-08-17 09:20:45
1877767 symbas.com 1 No Rank 2011-08-17 09:20:46
1877768 synchroe.com 0 No Rank 2011-08-17 09:20:54
1877769 syncblog.es 5 1375351 2011-08-17 09:21:00
1877770 syms.com.cn 4 507255 2011-08-17 09:21:01
1877771 syn.com.cn 2 No Rank 2011-09-19 13:08:46
1877772 synaj.com 3 1754349 2011-08-17 09:21:06
1877773 syn-lubes.com 3 7033016 2011-08-17 09:21:06
1877774 symrise.de 5 22837812 2011-08-17 09:21:07
1877775 symtezzi.com 2 No Rank 2011-08-17 09:21:09
1877776 sync-mobile.com 1 No Rank 2011-08-17 09:21:11
1877777 synapsis.pl 4 1218146 2011-08-17 09:21:12
1877778 sympathyflowers.com 4 3177495 2011-08-17 09:21:13
1877779 synack.net 0 1988107 2011-09-19 17:44:41
1877780 doeyelashesgrowbackx.com 0 23609330 2011-08-17 09:21:16
1877781 sync.ro 5 6206279 2011-08-17 09:21:17
1877782 syn.net 4 2668587 2011-08-17 09:21:23
1877783 synclinewine.com 4 6108064 2011-08-17 09:21:30
1877784 synergybank.com 2 23139637 2011-08-17 09:21:33
1877785 syndication.getoutdoors.com 0 406697 2011-09-12 15:45:33
1877786 synergisticsoftware.com 3 16614524 2011-09-19 15:53:37
1877787 synergyenv.com 1 No Rank 2011-08-17 09:21:46
1877788 syndome.com 4 418377 2011-08-17 09:21:46
1877789 syncrosvnclient.com 5 616545 2011-08-17 09:21:48
1877790 syngenta.de 5 3966280 2011-08-17 09:21:48
1877791 syndik8.com 0 11937326 2011-08-17 09:21:50
1877792 synnergy.net 0 No Rank 2011-09-19 11:29:12
1877793 synetic.de 4 3023548 2011-08-17 09:21:56
1877794 synometrix.com 3 1823974 2011-08-17 09:21:59
1877795 syq.asia 0 No Rank 2011-08-17 09:22:05
1877796 synteract.com 4 2796737 2011-08-17 09:22:07
1877797 syntrax.com 3 No Rank 2011-08-17 09:22:08
1877798 synthony.com 3 4992303 2011-08-17 09:22:13
1877799 syonan.or.jp 3 No Rank 2011-08-17 09:22:14
1877800 bossjdejin.cn.alibaba.com 0 70 2011-08-17 09:22:14
1877801 sypc.com.cn 3 8690217 2011-09-19 16:00:15
1877802 syny.com 2 16422264 2011-09-14 00:14:30
1877803 syntaxtraining.com 3 727370 2011-08-17 09:22:21
1877804 synthetic-ap.com 5 917729 2011-08-17 09:22:22
1877805 syowa.org 2 7997735 2011-08-17 09:22:24
1877806 syoucyu.com 4 No Rank 2011-08-17 09:22:26
1877807 synetoptics.com 4 6418538 2011-08-17 09:22:27
1877808 syot-online.com 2 No Rank 2011-08-17 09:22:27
1877809 syntheticbliss.net 2 No Rank 2011-08-17 09:22:28
1877810 syoki.com 3 9682432 2011-08-17 09:22:32
1877811 syntens.nl 7 420651 2011-08-17 09:22:32
1877812 syoutoukai.or.jp 3 7424162 2011-08-17 09:22:32
1877813 syowakan.com 2 No Rank 2011-08-17 09:22:40
1877814 synygy.com 4 927558 2011-08-17 09:22:42
1877815 loveni365.com 0 No Rank 2011-09-09 23:29:57
1877816 syscofoods.com 0 No Rank 2011-09-09 22:50:25
1877817 syrian.net 0 No Rank 2011-08-17 09:22:45
1877818 snyderphonics.com 4 329116 2011-08-17 09:22:45
1877819 sysdream.com 5 2063525 2011-08-17 09:22:46
1877820 syrentha.org 3 No Rank 2011-08-17 09:22:49
1877821 syracusedomains.com 0 7103294 2011-08-17 09:22:53
1877822 syria2u.com 0 503690 2011-08-17 09:22:53
1877823 synplicity.com 7 No Rank 2011-09-19 12:24:12
1877824 syrecon.org 6 1104494 2011-08-17 09:22:57
1877825 syso.net 2 No Rank 2011-08-17 09:23:00
1877826 job7.faire-des-economies.recherche-d-emploi.net 0 No Rank 2011-08-17 09:23:01
1877827 syrvet.com 4 8768145 2011-08-17 09:23:01
1877828 sysoev.ru 4 59472 2011-08-17 09:23:16
1877829 sys-cor.com 3 8830862 2011-08-17 09:23:18
1877830 systematicsports.com 0 No Rank 2011-09-09 21:12:34
1877831 systor.com 0 28294958 2011-08-17 09:23:21
1877832 syrianleague.com 4 7032567 2011-08-17 09:23:22
1877833 systemrunner.com 0 No Rank 2011-08-17 09:23:26
1877834 system.pl 1 4395046 2011-09-18 10:41:45
1877835 vesak-singapore.com 0 6292040 2011-08-17 09:23:30
1877836 system-brain.com 2 9654592 2011-09-10 19:21:58
1877837 system-information-windows.qarchive.org 0 7598 2011-08-17 09:23:39
1877838 systemchec.com 1 13109270 2011-08-17 09:23:42
1877839 systemonline.cz 6 558673 2011-08-17 09:23:44
1877840 18xtra.com 0 1564929 2011-08-17 09:23:50
1877841 systers.org 6 No Rank 2011-08-17 09:23:52
1877842 sytsma.com 4 6204175 2011-09-12 13:50:40
1877843 syukusyuku.com 3 No Rank 2011-08-17 09:23:58
1877844 sz009.com 0 No Rank 2011-08-17 09:23:58
1877845 182184.com 0 No Rank 2011-08-17 09:23:58
1877846 systemips.com 0 No Rank 2011-09-12 15:49:11
1877847 sz1859.com 2 No Rank 2011-08-17 09:24:06
1877848 sz-en.cn 1 No Rank 2011-08-17 09:24:11
1877849 sytk.com 0 No Rank 2011-09-12 11:17:24
1877850 sz-act.com 0 No Rank 2011-08-17 09:24:12
1877851 sywzdh.com 0 No Rank 2011-08-17 09:24:13
1877852 syzx.net.cn 5 6054149 2011-08-17 09:24:14
1877853 systran.ru 6 No Rank 2011-08-17 09:24:16
1877854 syw.sh.cn 2 11996567 2011-08-17 09:24:20
1877855 sz-car.net 0 No Rank 2011-09-12 14:59:25
1877856 syugotenshi.jp 4 9640253 2011-08-17 09:24:21
1877857 sz-gem.com 4 1594774 2011-08-17 09:24:23
1877858 sz-cec.com 4 No Rank 2011-08-17 09:24:24
1877859 sz-style.com 0 No Rank 2011-08-17 09:24:26
1877860 syushoku.com 3 No Rank 2011-08-17 09:24:27
1877861 188698.com 0 No Rank 2011-08-17 09:24:27
1877862 syuubu.jp 2 No Rank 2011-08-17 09:24:28
1877863 szabadelet.vilaga.hu 3 2182617 2011-08-17 09:24:30
1877864 szbe.net 1 5457756 2011-08-17 09:24:34
1877865 szelaw.com 4 6488611 2011-08-17 09:24:38
1877866 szallies.de 3 7570710 2011-08-17 09:24:38
1877867 tobgadgets.com 0 15006733 2011-08-17 09:24:39
1877868 szablony.serfer.pl 3 2368810 2011-08-17 09:24:41
1877869 sz-window.com 4 11064326 2011-08-17 09:24:42
1877870 jackpenate.com 5 284077 2011-08-17 09:24:42
1877871 szeparc.hu 1 No Rank 2011-08-17 09:24:42
1877872 bestconvectiontoasteroven.com 0 No Rank 2011-08-17 09:24:44
1877873 szbroad.yp.sina.net 0 25448 2011-09-10 22:42:59
1877874 1doost.com 2 66627 2011-08-17 09:24:49
1877875 szccc.com 0 7759463 2011-08-17 09:24:49
1877876 szcraft.com 0 No Rank 2011-09-10 07:24:14
1877877 1gel.tripod.com 0 658 2011-08-17 09:24:56
1877878 szabados.hu 2 16057697 2011-08-17 09:24:57
1877879 szazadveg.hu 6 1931403 2011-08-17 09:24:59
1877880 szabadelet.tk 3 1897941 2011-08-17 09:24:59
1877881 szcrm.com 4 7004887 2011-08-17 09:25:02
1877882 szatmar.ro 5 504849 2011-08-17 09:25:08
1877883 szbq.com 0 No Rank 2011-08-17 09:25:08
1877884 szdongjia.com 0 8597610 2011-08-17 09:25:09
1877885 szczyty.pl 2 No Rank 2011-08-17 09:25:12
1877886 1heatcool.com 0 No Rank 2011-08-17 09:25:13
1877887 szenewien.com 6 2469272 2011-08-17 09:25:14
1877888 szceo.com 5 233457 2011-09-10 06:38:25
1877889 szjwt.com 2 12050312 2011-08-17 09:25:19
1877890 szgs.com.cn 5 6943870 2011-08-17 09:25:21
1877891 szjds.com 0 No Rank 2011-08-17 09:25:22
1877892 szamotuly.top-ogloszenia.com 0 570564 2011-08-17 09:25:23
1877893 szczytno.top-ogloszenia.net 1 122338 2011-09-12 21:19:47
1877894 cohu.com 4 5653618 2011-08-17 09:25:24
1877895 szkd.com 1 No Rank 2011-08-17 09:25:25
1877896 szimcp.com 5 No Rank 2011-08-17 09:25:26
1877897 1joint.info 1 No Rank 2011-08-17 09:25:27
1877898 1kenya.com 0 No Rank 2011-08-17 09:25:31
1877899 szgfm.com 0 17737145 2011-08-17 09:25:33
1877900 szhot.com 4 96338 2011-08-17 09:25:34
1877901 ckmer.com 3 No Rank 2011-08-17 09:25:34
1877902 szfhs.com 0 15127268 2011-09-10 11:23:58
1877903 yasoo.com 3 9566027 2011-08-17 09:25:37
1877904 szhsm.com 1 10095466 2011-09-19 01:43:57
1877905 1lit.tripod.com 0 658 2011-08-17 09:25:40
1877906 szhotelbook.cn 3 4708804 2011-08-17 09:25:41
1877907 szerlip.com 3 23463041 2011-08-17 09:25:41
1877908 szjs.net 5 560546 2011-08-17 09:25:44
1877909 tracii.de 3 No Rank 2011-09-19 18:15:09
1877910 szeretni.hu 2 6324493 2011-08-17 09:25:48
1877911 szfad.com 0 No Rank 2011-09-12 21:35:54
1877912 szii.gov.cn 5 No Rank 2011-08-17 09:25:48
1877913 szeretlek69.spaces.live.com 0 No Rank 2011-08-17 09:25:52
1877914 1podarok.ru 3 3188706 2011-08-17 09:25:54
1877915 xcamp.org 0 No Rank 2011-09-09 21:18:13
1877916 szfljz.com 0 No Rank 2011-08-17 09:25:58
1877917 hymer.com 4 220007 2011-08-17 09:26:00
1877918 szopienice.com.pl 0 No Rank 2011-08-17 09:26:03
1877919 szjzrc.com 4 614314 2011-08-17 09:26:06
1877920 szmshc.com 1 No Rank 2011-08-17 09:26:08
1877921 szpitale.org 4 5855829 2011-08-17 09:26:09
1877922 szhrt.com 2 No Rank 2011-08-17 09:26:11
1877923 1sacekimi.com 0 29212524 2011-09-19 12:36:09
1877924 szlaki.pl 3 25257814 2011-08-17 09:26:14
1877925 sztecho.com 3 No Rank 2011-08-17 09:26:15
1877926 zefty.com 3 506420 2011-08-17 09:26:17
1877927 szsunwin.com 4 3236024 2011-08-17 09:26:18
1877928 szqiue.com 4 No Rank 2011-08-17 09:26:21
1877929 szre-sun.com 1 No Rank 2011-08-17 09:26:22
1877930 bcymer.com 3 3205202 2011-08-17 09:26:23
1877931 szmotor.com 2 12550039 2011-08-17 09:26:25
1877932 szkla.com 4 168999 2011-08-17 09:26:28
1877933 store1.disipromosyon.com.tr 0 13077307 2011-09-19 12:48:32
1877934 szone.us 3 1273844 2011-08-17 09:26:38
1877935 szmes.com 3 17101736 2011-09-10 05:27:19
1877936 sztab.org 4 10859435 2011-08-17 09:26:40
1877937 sztartozsde.hu 3 No Rank 2011-08-17 09:26:44
1877938 szlifei.com 0 No Rank 2011-08-17 09:26:47
1877939 szubin.top-ogloszenia.net 0 122338 2011-09-19 07:19:56
1877940 szvup.com 7 1916702 2011-08-17 09:26:52
1877941 t-birds.com 2 28463023 2011-08-17 09:26:55
1877942 t-artists.com 3 No Rank 2011-08-17 09:26:56
1877943 szsf.net 5 8920384 2011-09-12 16:41:04
1877944 rockariot.de 0 No Rank 2011-08-17 09:27:01
1877945 blodic.us 3 1148520 2011-08-17 09:27:02
1877946 szyjx.com 2 5083097 2011-09-11 14:57:47
1877947 stienstra.nl 3 6160090 2011-08-17 09:27:09
1877948 t-com-specials.de 0 14340185 2011-08-17 09:27:11
1877949 sztdx.com 2 10572809 2011-09-12 15:31:15
1877950 szwm.com 3 No Rank 2011-08-17 09:27:13
1877951 t-aiken.com 3 No Rank 2011-08-17 09:27:16
1877952 szvienna.com 5 3536751 2011-08-17 09:27:16
1877953 renedwars.nl 3 9320966 2011-08-17 09:27:17
1877954 szupdate.com 3 No Rank 2011-08-17 09:27:21
1877955 t-ded.com 1 2819521 2011-08-17 09:27:22
1877956 szxhc.com 0 No Rank 2011-08-17 09:27:23
1877957 szybki-serwer.pl 2 372013 2011-08-17 09:27:23
1877958 t-1sales.com 0 No Rank 2011-08-17 09:27:27
1877959 sztw.com 4 No Rank 2011-08-17 09:27:29
1877960 t-cc.ru 1 No Rank 2011-08-17 09:27:30
1877961 t-qualizer-shirt.de 1 26236139 2011-08-17 09:27:34
1877962 t-o.biz 0 No Rank 2011-08-17 09:27:35
1877963 t-raxhauler.com 2 No Rank 2011-08-17 09:27:37
1877964 t-online.ch 5 No Rank 2011-08-17 09:27:37
1877965 cavmen.home.disipromosyon.com.tr 0 13077307 2011-09-12 12:39:47
1877966 t-kojima.com 0 No Rank 2011-08-17 09:27:39
1877967 szxhsw.com 0 No Rank 2011-09-10 01:13:20
1877968 t-eizen.com 2 7816120 2011-08-17 09:27:41
1877969 t-iwaya.com 4 2698031 2011-08-17 09:27:43
1877970 t-punkt.de 6 5482210 2011-09-19 14:33:41
1877971 t-i.ru 5 700872 2011-08-17 09:27:45
1877972 rockbakery.ch 2 26958525 2011-08-17 09:27:45
1877973 t-hack.com 1 1106082 2011-08-17 09:27:51
1877974 t-r-i.com 1 No Rank 2011-08-17 09:27:55
1877975 0-60times.com 0 7101405 2011-08-17 09:27:55
1877976 t-online-travel.de 4 No Rank 2011-08-17 09:27:56
1877977 t-e-i.co.jp 3 6991790 2011-08-17 09:28:03
1877978 t-s.fr 4 359805 2011-08-17 09:28:05
1877979 t-izumo.co.jp 2 No Rank 2011-08-17 09:28:07
1877980 t-dsl.de 0 No Rank 2011-08-17 09:28:08
1877981 t1.org 7 No Rank 2011-08-17 09:28:08
1877982 robinrenee.com 4 No Rank 2011-08-17 09:28:09
1877983 tp119.com 0 No Rank 2011-08-17 09:28:10
1877984 t-tech.com 5 7128883 2011-08-17 09:28:13
1877985 t2-project.org 5 1235313 2011-08-17 09:28:18
1877986 t100.ir 2 66068 2011-09-19 13:53:22
1877987 t0001.com 5 34369 2011-08-17 09:28:20
1877988 t2.everyday.com 2 205455 2011-08-17 09:28:21
1877989 t-mall.jp 0 No Rank 2011-09-19 08:19:21
1877990 thewaroftheworlds.com 4 435816 2011-09-12 00:33:35
1877991 rock-marley.de 0 No Rank 2011-08-17 09:28:32
1877992 t06.his.88n.eu 0 2865219 2011-08-17 09:28:33
1877993 rockkantine.de 2 No Rank 2011-08-17 09:28:35
1877994 t2.kaixinyou.net 0 17767814 2011-08-17 09:28:35
1877995 t-sticksurf.com 3 1102499 2011-08-17 09:28:36
1877996 t-zones.de 4 8958730 2011-08-17 09:28:38
1877997 t-shinpo.com 3 5682711 2011-08-17 09:28:39
1877998 t-shirtking.com 4 1455672 2011-08-17 09:28:39
1877999 t1mmy.net 3 No Rank 2011-08-17 09:28:41